Regional Weather Roundup
Issued by NWS

Home | Current Version | Previous Version | Text Only | Print | Product List | Glossary On
Versions: 1 2 3 4 5 6 7 8 9 10 11 12 13 14 15 16 17 18 19 20 21 22 23 24 25 26 27 28 29 30 31 32 33 34 35 36 37 38 39 40 41 42 43 44 45 46 47 48 49 50
000
ASUS46 KSTO 120715
RWRCA

NORTHERN AND CENTRAL CA REGIONAL WEATHER ROUNDUP
NATIONAL WEATHER SERVICE SACRAMENTO CA
1100 PM PST MON DEC 11 2017

NOTE: FAIR INDICATES FEW OR NO CLOUDS BELOW 12,000 FEET WITH NO
SIGNIFICANT WEATHER AND/OR OBSTRUCTIONS TO VISIBILITY.

CAZ001-003-120800-
NORTHWEST AREA

CITY           SKY/WX    TMP DP  RH WIND       PRES   REMARKS
CRESCENT CITY  CLEAR     49  35  58 E7        30.35F
UKIAH          CLEAR     33  30  88 CALM      30.37R
$$

CAZ006-505>513-120800-
BAY AREA

CITY           SKY/WX    TMP DP  RH WIND       PRES   REMARKS
SANTA ROSA     FOG       36  36 100 CALM      30.32S VSB 1/4
SAN RAFAEL     N/A       49  MM  MM MISG
NAPA           CLEAR     39  33  79 N8        30.34R WCI  33
CONCORD        CLEAR     44  34  67 CALM      30.34S
OAKLAND CITY   N/A      MM  MM  MM MISG
OAKLAND        PTCLDY    45  39  79 CALM      30.33S
SAN FRAN CITY  N/A       55  MM  51 MISG
SAN FRAN ARPT  PTCLDY    52  45  77 SE5       30.33R
LIVERMORE      CLEAR     41  31  67 CALM      30.34R
HAYWARD        CLEAR     49  28  44 NE5       30.32S
REDWOOD CITY   N/A       42  MM  77 MISG
MOFFETT ARPT   CLEAR     47  37  68 CALM      30.34R
SAN JOSE ARPT  PTCLDY    51  38  60 SE3       30.33R
$$
CAZ034-037-514>518-120800-
CENTRAL COAST

CITY           SKY/WX    TMP DP  RH WIND       PRES   REMARKS
WATSONVILLE    CLEAR     48  35  60 W5        30.31S
SALINAS        CLEAR     50  24  36 SE7       30.30S
MONTEREY       PTCLDY    49  29  46 E7        30.29F
SAN LUIS OBISP CLEAR     46  17  31 E5        30.25S
SANTA MARIA    CLEAR     43  23  45 S5        30.25R
$$
CAZ015-016-120800-
NORTHERN SACRAMENTO VALLEY

CITY           SKY/WX    TMP DP  RH WIND       PRES   REMARKS
REDDING        CLEAR     36  31  82 N3        30.33S
RED BLUFF      CLEAR     39  31  72 NW6       30.34S WCI  35
OROVILLE       CLEAR     42  37  82 NE5       30.36R
$$
CAZ016>018-120800-
SOUTHERN SACRAMENTO VALLEY

CITY           SKY/WX    TMP DP  RH WIND       PRES   REMARKS
AUBURN         CLEAR     46  36  66 E3        30.34S
BEALE AFB      CLEAR     39  34  83 E3        30.33R
LINCOLN        FAIR      34  32  93 E6        30.34S WCI  29
MARYSVILLE     CLEAR     35  33  92 CALM      30.36R
SAC INTL ARPT  CLEAR     36  34  92 E3        30.34R
MATHER AIRPORT CLOUDY    39  36  87 NE6       30.34R WCI  35
DOWNTOWN SAC   N/A       43  MM  MM MISG
SAC EXEC ARPT  CLEAR     37  36  96 CALM      30.35R
VACAVILLE      CLEAR     36  31  82 SW3       30.35S
TRAVIS AFB     CLEAR     38  34  84 CALM      30.33R
$$
CAZ019>021-120800-
SAN JOAQUIN VALLEY

CITY           SKY/WX    TMP DP  RH WIND       PRES   REMARKS
STOCKTON       CLEAR     37  33  85 CALM      30.34R
MODESTO        CLEAR     39  37  92 E6        30.34S FOG     WCI  35
MERCED         CLEAR     35  32  88 E3        30.35R
LEMOORE        PTCLDY    36  27  69 W7        30.37R HAZE    WCI  30
FRESNO         CLEAR     41  36  82 CALM      30.36R HAZE
HANFORD        CLEAR     35  34  96 CALM      30.37R FOG
PORTERVILLE    CLEAR     39  34  82 E3        30.36S HAZE
BAKERSFIELD    CLEAR     43  32  65 CALM      30.35R HAZE
$$
CAZ011-012-071-120800-
NORTHERN MOUNTAINS

CITY           SKY/WX    TMP DP  RH WIND       PRES   REMARKS
YREKA          CLEAR     22  20  92 CALM      30.52S
MOUNT SHASTA   CLEAR     28  22  78 VRB3      30.47R
ALTURAS        CLEAR     20  16  84 CALM      30.52R FOG
$$
CAZ011-012-071-120800-
SIERRA NEVADA MTNS

CITY           SKY/WX    TMP DP  RH WIND       PRES   REMARKS
BLUE CANYON    CLEAR     55  -4   9 CALM      30.44S
TRUCKEE        CLEAR     19  18  93 CALM      30.54S
TAHOE VLY ARPT CLEAR     21  17  84 S3        30.53S
MAMMOTH LAKES  FAIR      21   3  44 NW5       30.57S WCI  15
$$



USA.gov is the U.S. government's official web portal to all federal, state and local government web resources and services.